Página principal
METAR-TAF:

METAR-TAF

Aeroportos :

Aeroporto Internacional do Kuwait

Kuwait, Kuwait

latitude: 29-13N, longitude: 047-59E, altura: 55 m

Observação actual do tempo

O boletim foi feito há 6 minutos, às 13:00 UTC
Vento 14 kt de nor-noroeste
Temperatura 23°C
Humidade 44%
Pressão 1019 hPa
Visibilidade 10 km ou mais
sem nuvens abaixo de 1500 metros e sem cumulonimbus

METAR: OKBK 181300Z 34014KT CAVOK 23/10 Q1019 NOSIG

Hora: 16:06 (13:06 UTC)

Previsão

O boletim foi feito há 2 horas e 21 minutos, às 10:45 UTC
Previsão válida de 18 às 12 UTC a 19 às 18 UTC
Vento 15 kt de nor-noroeste
Visibilidade 10 km ou mais
sem nuvens abaixo de 1500 metros e sem cumulonimbus

TAF: OKBK 181045Z 1812/1918 34015KT CAVOK

Observações e previsões do tempo de mais de 4000 aeroportos (mensagens METAR e TAF).

As estações disponíveis são os pontos amarelos e vermelhos sobre o mapa.

Mova o rato sobre o mapa para ver o nome da estação.

Depois clique no ponto para visualizar as observações e previsões meteorológicas.

Para alterar o mapa : clique nos botões verdes com uma cruz preta para aumentar o zoom; no botão verde com uma pitada de zoom; ou nas setas verdes para mapas adjacentes.


METAR-TAF: